Time,TemperatureF,DewpointF,PressureIn,WindDirection,WindDirectionDegrees,WindSpeedMPH,WindSpeedGustMPH,Humidity,HourlyPrecipIn,Conditions,Clouds,dailyrainin,SoftwareType,DateUTC
2013-03-02 00:00:00,29.5,20.3,30.07,NNE,18,1.0,11.0,68,0.00,,---,0.03,VWS V14.01,2013-03-02 05:00:00,
2013-03-02 00:05:00,29.4,20.5,30.07,NE,50,0.0,8.0,69,0.00,,---,0.00,VWS V14.01,2013-03-02 05:05:00,
2013-03-02 00:10:00,29.3,20.4,30.07,NNE,12,3.0,8.0,69,0.00,,---,0.00,VWS V14.01,2013-03-02 05:10:00,
2013-03-02 00:15:00,29.1,20.5,30.07,NNE,31,2.0,9.0,70,0.00,,---,0.00,VWS V14.01,2013-03-02 05:15:00,
2013-03-02 00:20:00,29.0,20.5,30.07,North,10,4.0,9.0,70,0.00,,---,0.00,VWS V14.01,2013-03-02 05:20:00,
2013-03-02 00:25:00,29.0,20.1,30.07,ENE,57,3.0,9.0,69,0.00,,---,0.00,VWS V14.01,2013-03-02 05:25:00,
2013-03-02 00:30:00,28.8,19.9,30.07,NNE,22,4.0,9.0,69,0.00,,---,0.00,VWS V14.01,2013-03-02 05:30:00,
2013-03-02 00:35:00,28.8,19.9,30.07,ENE,57,1.0,7.0,69,0.00,,---,0.00,VWS V14.01,2013-03-02 05:35:00,
2013-03-02 00:40:00,28.7,20.2,30.07,NE,34,0.0,7.0,70,0.00,,---,0.00,VWS V14.01,2013-03-02 05:40:00,
2013-03-02 00:45:00,28.5,20.0,30.07,ENE,61,1.0,7.0,70,0.00,,---,0.00,VWS V14.01,2013-03-02 05:45:00,
2013-03-02 00:50:00,28.4,19.9,30.07,NNE,15,0.0,7.0,70,0.00,,---,0.00,VWS V14.01,2013-03-02 05:50:00,
2013-03-02 00:55:00,28.4,19.9,30.07,NNE,26,1.0,7.0,70,0.00,,---,0.00,VWS V14.01,2013-03-02 05:55:00,
2013-03-02 01:00:00,28.4,19.5,30.07,NE,44,3.0,7.0,69,0.00,,---,0.00,VWS V14.01,2013-03-02 06:00:00,
2013-03-02 01:05:00,28.2,19.4,30.07,North,5,3.0,5.0,69,0.00,,---,0.00,VWS V14.01,2013-03-02 06:05:00,
2013-03-02 01:10:00,28.2,19.4,30.07,NE,36,2.0,8.0,69,0.00,,---,0.00,VWS V14.01,2013-03-02 06:10:00,
2013-03-02 01:15:00,28.4,19.2,30.07,NNE,15,1.0,8.0,68,0.00,,---,0.00,VWS V14.01,2013-03-02 06:15:00,
2013-03-02 01:20:00,28.4,19.2,30.07,NE,38,0.0,12.0,68,0.00,,---,0.00,VWS V14.01,2013-03-02 06:20:00,
2013-03-02 01:25:00,28.2,19.0,30.07,NE,43,2.0,12.0,68,0.00,,---,0.00,VWS V14.01,2013-03-02 06:25:00,
2013-03-02 01:30:00,28.4,19.2,30.07,NNE,21,1.0,12.0,68,0.00,,---,0.00,VWS V14.01,2013-03-02 06:30:00,
2013-03-02 01:35:00,28.4,19.5,30.07,NNE,28,5.0,7.0,69,0.00,,---,0.00,VWS V14.01,2013-03-02 06:35:00,
2013-03-02 01:40:00,28.4,19.5,30.07,NE,49,4.0,11.0,69,0.00,,---,0.00,VWS V14.01,2013-03-02 06:40:00,
2013-03-02 01:45:00,28.5,19.6,30.07,North,5,5.0,13.0,69,0.00,,---,0.00,VWS V14.01,2013-03-02 06:45:00,
2013-03-02 01:50:00,28.7,19.5,30.07,ENE,60,11.0,15.0,68,0.00,,---,0.00,VWS V14.01,2013-03-02 06:50:00,
2013-03-02 01:55:00,28.5,19.0,30.07,NE,51,4.0,15.0,67,0.00,,---,0.00,VWS V14.01,2013-03-02 06:55:00,
2013-03-02 02:00:00,28.5,18.6,30.07,NE,55,3.0,15.0,66,0.00,,---,0.00,VWS V14.01,2013-03-02 07:00:00,
2013-03-02 02:05:00,28.5,18.6,30.07,North,360,0.0,7.0,66,0.00,,---,0.00,VWS V14.01,2013-03-02 07:05:00,
2013-03-02 02:10:00,28.5,18.2,30.07,NNE,22,6.0,10.0,65,0.00,,---,0.00,VWS V14.01,2013-03-02 07:10:00,
2013-03-02 02:15:00,28.5,17.9,30.08,NNE,26,2.0,10.0,64,0.00,,---,0.00,VWS V14.01,2013-03-02 07:15:00,
2013-03-02 02:20:00,28.5,18.2,30.07,ENE,71,1.0,10.0,65,0.00,,---,0.00,VWS V14.01,2013-03-02 07:20:00,
2013-03-02 02:25:00,28.5,18.2,30.07,ENE,75,3.0,10.0,65,0.00,,---,0.00,VWS V14.01,2013-03-02 07:25:00,
2013-03-02 02:30:00,28.5,18.2,30.07,North,5,2.0,10.0,65,0.00,,---,0.00,VWS V14.01,2013-03-02 07:30:00,
2013-03-02 02:35:00,28.4,18.1,30.07,NNE,32,4.0,7.0,65,0.00,,---,0.00,VWS V14.01,2013-03-02 07:35:00,
2013-03-02 02:40:00,28.4,18.1,30.07,ENE,67,4.0,10.0,65,0.00,,---,0.00,VWS V14.01,2013-03-02 07:40:00,
2013-03-02 02:45:00,28.4,18.1,30.07,NNE,32,2.0,10.0,65,0.00,,---,0.00,VWS V14.01,2013-03-02 07:45:00,
2013-03-02 02:50:00,28.4,18.1,30.07,NE,40,4.0,10.0,65,0.00,,---,0.00,VWS V14.01,2013-03-02 07:50:00,
2013-03-02 02:55:00,28.4,18.1,30.07,NE,34,3.0,10.0,65,0.00,,---,0.00,VWS V14.01,2013-03-02 07:55:00,
2013-03-02 03:00:00,28.4,18.5,30.07,North,5,2.0,10.0,66,0.00,,---,0.00,VWS V14.01,2013-03-02 08:00:00,
2013-03-02 03:05:00,28.4,18.5,30.07,North,355,1.0,7.0,66,0.00,,---,0.00,VWS V14.01,2013-03-02 08:05:00,
2013-03-02 03:10:00,28.4,18.5,30.07,NNE,19,3.0,7.0,66,0.00,,---,0.00,VWS V14.01,2013-03-02 08:10:00,
2013-03-02 03:15:00,28.4,18.1,30.07,North,360,2.0,9.0,65,0.00,,---,0.00,VWS V14.01,2013-03-02 08:15:00,
2013-03-02 03:20:00,28.2,17.6,30.07,North,11,1.0,9.0,64,0.00,,---,0.00,VWS V14.01,2013-03-02 08:20:00,
2013-03-02 03:25:00,28.4,18.1,30.07,North,9,0.0,9.0,65,0.00,,---,0.00,VWS V14.01,2013-03-02 08:25:00,
2013-03-02 03:30:00,28.2,17.6,30.07,North,11,1.0,9.0,64,0.00,,---,0.00,VWS V14.01,2013-03-02 08:30:00,
2013-03-02 03:35:00,28.2,17.6,30.07,ENE,59,3.0,6.0,64,0.00,,---,0.00,VWS V14.01,2013-03-02 08:35:00,
2013-03-02 03:40:00,28.2,17.6,30.07,ENE,63,2.0,9.0,64,0.00,,---,0.00,VWS V14.01,2013-03-02 08:40:00,
2013-03-02 03:45:00,28.1,17.9,30.07,NE,55,3.0,9.0,65,0.00,,---,0.00,VWS V14.01,2013-03-02 08:45:00,
2013-03-02 03:50:00,28.1,17.9,30.06,NNE,23,3.0,9.0,65,0.00,,---,0.00,VWS V14.01,2013-03-02 08:50:00,
2013-03-02 03:55:00,27.9,17.3,30.07,NNE,30,6.0,9.0,64,0.00,,---,0.00,VWS V14.01,2013-03-02 08:55:00,
2013-03-02 04:00:00,27.9,17.3,30.06,NNE,15,1.0,9.0,64,0.00,,---,0.00,VWS V14.01,2013-03-02 09:00:00,
2013-03-02 04:05:00,27.9,17.0,30.06,North,5,3.0,11.0,63,0.00,,---,0.00,VWS V14.01,2013-03-02 09:05:00,
2013-03-02 04:10:00,27.9,17.3,30.06,North,5,2.0,11.0,64,0.00,,---,0.00,VWS V14.01,2013-03-02 09:10:00,
2013-03-02 04:15:00,27.9,17.0,30.06,ENE,63,1.0,11.0,63,0.00,,---,0.00,VWS V14.01,2013-03-02 09:15:00,
2013-03-02 04:20:00,27.9,17.0,30.06,ENE,60,3.0,11.0,63,0.00,,---,0.00,VWS V14.01,2013-03-02 09:20:00,
2013-03-02 04:25:00,27.9,17.0,30.06,NE,49,2.0,11.0,63,0.00,,---,0.00,VWS V14.01,2013-03-02 09:25:00,
2013-03-02 04:30:00,27.9,17.3,30.06,NE,44,3.0,11.0,64,0.00,,---,0.00,VWS V14.01,2013-03-02 09:30:00,
2013-03-02 04:35:00,27.9,17.3,30.06,NE,40,1.0,6.0,64,0.00,,---,0.00,VWS V14.01,2013-03-02 09:35:00,
2013-03-02 04:40:00,27.8,17.2,30.06,NNE,30,1.0,8.0,64,0.00,,---,0.00,VWS V14.01,2013-03-02 09:40:00,
2013-03-02 04:45:00,27.8,17.2,30.06,North,5,4.0,8.0,64,0.00,,---,0.00,VWS V14.01,2013-03-02 09:45:00,
2013-03-02 04:50:00,27.8,17.6,30.06,NE,46,1.0,8.0,65,0.00,,---,0.00,VWS V14.01,2013-03-02 09:50:00,
2013-03-02 04:55:00,27.8,17.2,30.07,NNE,19,2.0,8.0,64,0.00,,---,0.00,VWS V14.01,2013-03-02 09:55:00,
2013-03-02 05:00:00,27.8,17.2,30.07,ENE,66,1.0,10.0,64,0.00,,---,0.00,VWS V14.01,2013-03-02 10:00:00,
2013-03-02 05:05:00,27.8,17.2,30.06,NE,38,8.0,8.0,64,0.00,,---,0.00,VWS V14.01,2013-03-02 10:05:00,
2013-03-02 05:10:00,27.8,17.2,30.06,ENE,72,2.0,9.0,64,0.00,,---,0.00,VWS V14.01,2013-03-02 10:10:00,
2013-03-02 05:15:00,27.8,17.6,30.07,ENE,57,0.0,9.0,65,0.00,,---,0.00,VWS V14.01,2013-03-02 10:15:00,
2013-03-02 05:20:00,27.8,17.6,30.07,NNE,17,0.0,9.0,65,0.00,,---,0.00,VWS V14.01,2013-03-02 10:20:00,
2013-03-02 05:25:00,27.8,17.2,30.07,North,9,5.0,9.0,64,0.00,,---,0.00,VWS V14.01,2013-03-02 10:25:00,
2013-03-02 05:30:00,27.8,17.6,30.07,NE,37,0.0,9.0,65,0.00,,---,0.00,VWS V14.01,2013-03-02 10:30:00,
2013-03-02 05:35:00,27.6,17.4,30.07,North,350,2.0,6.0,65,0.00,,---,0.00,VWS V14.01,2013-03-02 10:35:00,
2013-03-02 05:40:00,27.6,17.4,30.08,NE,44,1.0,6.0,65,0.00,,---,0.00,VWS V14.01,2013-03-02 10:40:00,
2013-03-02 05:45:00,27.6,17.7,30.08,North,5,1.0,9.0,66,0.00,,---,0.00,VWS V14.01,2013-03-02 10:45:00,
2013-03-02 05:50:00,27.5,17.6,30.07,NE,43,0.0,9.0,66,0.00,,---,0.00,VWS V14.01,2013-03-02 10:50:00,
2013-03-02 05:55:00,27.5,18.0,30.07,NE,48,0.0,9.0,67,0.00,,---,0.00,VWS V14.01,2013-03-02 10:55:00,
2013-03-02 06:00:00,27.5,18.0,30.07,NE,37,0.0,1.0,67,0.00,,---,0.00,VWS V14.01,2013-03-02 11:00:00,
2013-03-02 06:05:00,27.5,18.0,30.07,NE,36,0.0,7.0,67,0.00,,---,0.00,VWS V14.01,2013-03-02 11:05:00,
2013-03-02 06:10:00,27.5,18.0,30.07,NE,44,0.0,7.0,67,0.00,,---,0.00,VWS V14.01,2013-03-02 11:10:00,
2013-03-02 06:15:00,27.3,17.8,30.07,North,360,2.0,8.0,67,0.00,,---,0.00,VWS V14.01,2013-03-02 11:15:00,
2013-03-02 06:20:00,27.3,17.8,30.07,NE,42,0.0,8.0,67,0.00,,---,0.00,VWS V14.01,2013-03-02 11:20:00,
2013-03-02 06:25:00,27.3,18.1,30.07,North,5,2.0,8.0,68,0.00,,---,0.00,VWS V14.01,2013-03-02 11:25:00,
2013-03-02 06:30:00,27.3,17.8,30.07,NE,55,0.0,0.0,67,0.00,,---,0.00,VWS V14.01,2013-03-02 11:30:00,
2013-03-02 06:35:00,27.2,17.7,30.07,NNE,26,5.0,6.0,67,0.00,,---,0.00,VWS V14.01,2013-03-02 11:35:00,
2013-03-02 06:40:00,27.2,17.7,30.07,NE,36,2.0,6.0,67,0.00,,---,0.00,VWS V14.01,2013-03-02 11:40:00,
2013-03-02 06:45:00,27.2,17.7,30.07,NNE,19,1.0,7.0,67,0.00,,---,0.00,VWS V14.01,2013-03-02 11:45:00,
2013-03-02 06:50:00,27.2,17.7,30.07,NE,37,2.0,7.0,67,0.00,,---,0.00,VWS V14.01,2013-03-02 11:50:00,
2013-03-02 06:55:00,27.0,17.5,30.07,North,360,6.0,9.0,67,0.00,,---,0.00,VWS V14.01,2013-03-02 11:55:00,
2013-03-02 07:00:00,27.2,17.7,30.08,NNE,22,2.0,9.0,67,0.00,,---,0.00,VWS V14.01,2013-03-02 12:00:00,
2013-03-02 07:05:00,27.0,17.9,30.08,NE,46,1.0,7.0,68,0.00,,---,0.00,VWS V14.01,2013-03-02 12:05:00,
2013-03-02 07:10:00,27.0,17.9,30.08,North,9,2.0,7.0,68,0.00,,---,0.00,VWS V14.01,2013-03-02 12:10:00,
2013-03-02 07:15:00,27.0,17.9,30.08,NNE,16,5.0,10.0,68,0.00,,---,0.00,VWS V14.01,2013-03-02 12:15:00,
2013-03-02 07:20:00,27.0,17.5,30.08,NNW,348,5.0,11.0,67,0.00,,---,0.00,VWS V14.01,2013-03-02 12:20:00,
2013-03-02 07:25:00,27.0,17.5,30.08,NNW,331,8.0,11.0,67,0.00,,---,0.00,VWS V14.01,2013-03-02 12:25:00,
2013-03-02 07:30:00,27.0,17.5,30.08,North,360,7.0,14.0,67,0.00,,---,0.00,VWS V14.01,2013-03-02 12:30:00,
2013-03-02 07:35:00,26.9,17.1,30.08,NNW,338,5.0,11.0,66,0.00,,---,0.00,VWS V14.01,2013-03-02 12:35:00,
2013-03-02 07:40:00,26.9,16.7,30.09,North,355,3.0,12.0,65,0.00,,---,0.00,VWS V14.01,2013-03-02 12:40:00,
2013-03-02 07:45:00,26.9,16.4,30.09,North,5,6.0,14.0,64,0.00,,---,0.00,VWS V14.01,2013-03-02 12:45:00,
2013-03-02 07:50:00,26.9,16.7,30.09,NNW,344,6.0,14.0,65,0.00,,---,0.00,VWS V14.01,2013-03-02 12:50:00,
2013-03-02 07:55:00,26.9,16.7,30.09,NNE,14,2.0,14.0,65,0.00,,---,0.00,VWS V14.01,2013-03-02 12:55:00,
2013-03-02 08:00:00,26.9,17.1,30.09,NW,323,10.0,14.0,66,0.00,,---,0.00,VWS V14.01,2013-03-02 13:00:00,
2013-03-02 08:05:00,26.7,16.9,30.09,North,360,4.0,10.0,66,0.00,,---,0.00,VWS V14.01,2013-03-02 13:05:00,
2013-03-02 08:10:00,26.4,16.6,30.09,NNW,342,8.0,13.0,66,0.00,,---,0.00,VWS V14.01,2013-03-02 13:10:00,
2013-03-02 08:15:00,26.3,16.1,30.10,NNW,340,4.0,13.0,65,0.00,,---,0.00,VWS V14.01,2013-03-02 13:15:00,
2013-03-02 08:20:00,26.4,15.9,30.10,North,9,5.0,13.0,64,0.00,,---,0.00,VWS V14.01,2013-03-02 13:20:00,
2013-03-02 08:25:00,26.4,16.2,30.10,NNW,339,8.0,13.0,65,0.00,,---,0.00,VWS V14.01,2013-03-02 13:25:00,
2013-03-02 08:30:00,26.4,16.2,30.10,North,360,6.0,13.0,65,0.00,,---,0.00,VWS V14.01,2013-03-02 13:30:00,
2013-03-02 08:35:00,26.4,16.2,30.10,NNE,16,6.0,10.0,65,0.00,,---,0.00,VWS V14.01,2013-03-02 13:35:00,
2013-03-02 08:40:00,26.4,16.2,30.10,NNW,333,6.0,11.0,65,0.00,,---,0.00,VWS V14.01,2013-03-02 13:40:00,
2013-03-02 08:45:00,26.4,15.9,30.10,NNE,26,1.0,12.0,64,0.00,,---,0.00,VWS V14.01,2013-03-02 13:45:00,
2013-03-02 08:50:00,26.6,16.1,30.10,NNW,338,0.0,12.0,64,0.00,,---,0.00,VWS V14.01,2013-03-02 13:50:00,
2013-03-02 08:55:00,26.4,15.5,30.10,NNE,28,9.0,12.0,63,0.00,,---,0.00,VWS V14.01,2013-03-02 13:55:00,
2013-03-02 09:00:00,26.6,16.1,30.10,NW,319,6.0,12.0,64,0.00,,---,0.00,VWS V14.01,2013-03-02 14:00:00,
2013-03-02 09:06:00,26.4,15.9,30.10,North,360,3.0,10.0,64,0.00,,---,0.00,VWS V14.01,2013-03-02 14:06:00,
2013-03-02 09:11:00,26.4,16.2,30.11,NNW,342,5.0,11.0,65,0.00,,---,0.00,VWS V14.01,2013-03-02 14:11:00,
2013-03-02 09:16:00,26.4,16.6,30.10,North,5,5.0,11.0,66,0.00,,---,0.00,VWS V14.01,2013-03-02 14:16:00,
2013-03-02 09:21:00,26.4,16.6,30.11,North,360,2.0,11.0,66,0.00,,---,0.00,VWS V14.01,2013-03-02 14:21:00,
2013-03-02 09:26:00,26.3,16.5,30.10,North,5,4.0,11.0,66,0.00,,---,0.00,VWS V14.01,2013-03-02 14:26:00,
2013-03-02 09:30:00,26.3,16.9,30.10,North,5,6.0,11.0,67,0.00,,---,0.00,VWS V14.01,2013-03-02 14:30:00,
2013-03-02 09:31:00,26.3,16.9,30.11,North,360,7.0,7.0,67,0.00,,---,0.00,VWS V14.01,2013-03-02 14:31:00,
2013-03-02 09:36:00,26.3,16.9,30.11,North,355,4.0,9.0,67,0.00,,---,0.00,VWS V14.01,2013-03-02 14:36:00,
2013-03-02 09:41:00,26.3,16.9,30.11,NNW,330,5.0,10.0,67,0.00,,---,0.00,VWS V14.01,2013-03-02 14:41:00,
2013-03-02 09:46:00,26.3,16.9,30.11,NNW,345,5.0,10.0,67,0.00,,---,0.00,VWS V14.01,2013-03-02 14:46:00,
2013-03-02 09:51:00,26.4,17.3,30.11,NNW,348,7.0,10.0,68,0.00,,---,0.00,VWS V14.01,2013-03-02 14:51:00,
2013-03-02 09:56:00,26.3,17.2,30.11,North,360,3.0,11.0,68,0.00,,---,0.00,VWS V14.01,2013-03-02 14:56:00,
2013-03-02 10:00:00,26.4,17.6,30.11,North,355,6.0,11.0,69,0.00,,---,0.00,VWS V14.01,2013-03-02 15:00:00,
2013-03-02 10:01:00,26.4,17.6,30.11,NNE,16,8.0,11.0,69,0.00,,---,0.00,VWS V14.01,2013-03-02 15:01:00,
2013-03-02 10:06:00,26.4,18.0,30.11,North,360,6.0,11.0,70,0.00,,---,0.00,VWS V14.01,2013-03-02 15:06:00,
2013-03-02 10:11:00,26.4,18.0,30.11,North,5,1.0,11.0,70,0.00,,---,0.00,VWS V14.01,2013-03-02 15:11:00,
2013-03-02 10:16:00,26.4,18.0,30.11,North,350,7.0,11.0,70,0.00,,---,0.00,VWS V14.01,2013-03-02 15:16:00,
2013-03-02 10:21:00,26.3,17.5,30.11,NNE,19,5.0,11.0,69,0.00,,---,0.00,VWS V14.01,2013-03-02 15:21:00,
2013-03-02 10:26:00,26.3,17.9,30.11,North,5,8.0,11.0,70,0.00,,---,0.00,VWS V14.01,2013-03-02 15:26:00,
2013-03-02 10:30:00,26.3,17.9,30.11,NNE,24,5.0,11.0,70,0.00,,---,0.00,VWS V14.01,2013-03-02 15:30:00,
2013-03-02 10:31:00,26.3,17.9,30.12,NNE,33,2.0,8.0,70,0.00,,---,0.00,VWS V14.01,2013-03-02 15:31:00,
2013-03-02 10:36:00,26.3,17.5,30.12,NNE,30,1.0,11.0,69,0.00,,---,0.00,VWS V14.01,2013-03-02 15:36:00,
2013-03-02 10:41:00,26.3,17.5,30.12,NNE,27,1.0,11.0,69,0.00,,---,0.00,VWS V14.01,2013-03-02 15:41:00,
2013-03-02 10:46:00,26.4,17.6,30.12,North,355,4.0,11.0,69,0.00,,---,0.00,VWS V14.01,2013-03-02 15:46:00,
2013-03-02 10:51:00,26.6,17.5,30.12,NNW,348,4.0,11.0,68,0.00,,---,0.00,VWS V14.01,2013-03-02 15:51:00,
2013-03-02 10:56:00,26.7,17.2,30.12,North,355,3.0,11.0,67,0.00,,---,0.00,VWS V14.01,2013-03-02 15:56:00,
2013-03-02 11:04:00,26.9,17.1,30.12,NNW,341,3.0,3.0,66,0.00,,---,0.00,VWS V14.01,2013-03-02 16:04:00,
2013-03-02 11:09:00,27.2,17.7,30.12,NNW,345,9.0,10.0,67,0.00,,---,0.00,VWS V14.01,2013-03-02 16:09:00,
2013-03-02 11:14:00,27.2,17.0,30.12,NNE,18,5.0,10.0,65,0.00,,---,0.00,VWS V14.01,2013-03-02 16:14:00,
2013-03-02 11:19:00,27.2,17.4,30.12,North,355,9.0,11.0,66,0.00,,---,0.00,VWS V14.01,2013-03-02 16:19:00,
2013-03-02 11:24:00,27.0,17.5,30.12,NNW,342,7.0,11.0,67,0.00,,---,0.00,VWS V14.01,2013-03-02 16:24:00,
2013-03-02 11:29:00,27.0,17.5,30.12,North,360,8.0,11.0,67,0.00,,---,0.00,VWS V14.01,2013-03-02 16:29:00,
2013-03-02 11:34:00,26.9,17.1,30.12,North,10,7.0,8.0,66,0.00,,---,0.00,VWS V14.01,2013-03-02 16:34:00,
2013-03-02 11:39:00,27.0,17.5,30.12,North,355,9.0,9.0,67,0.00,,---,0.00,VWS V14.01,2013-03-02 16:39:00,
2013-03-02 11:44:00,27.0,17.5,30.12,NNW,347,3.0,12.0,67,0.00,,---,0.00,VWS V14.01,2013-03-02 16:44:00,
2013-03-02 11:49:00,27.2,17.7,30.12,NNE,20,4.0,12.0,67,0.00,,---,0.00,VWS V14.01,2013-03-02 16:49:00,
2013-03-02 11:54:00,27.3,17.8,30.12,NNW,336,6.0,12.0,67,0.00,,---,0.00,VWS V14.01,2013-03-02 16:54:00,
2013-03-02 11:59:00,27.5,17.3,30.12,North,5,3.0,12.0,65,0.00,,---,0.00,VWS V14.01,2013-03-02 16:59:00,
2013-03-02 12:04:00,27.5,17.3,30.12,North,360,5.0,10.0,65,0.00,,---,0.00,VWS V14.01,2013-03-02 17:04:00,
2013-03-02 12:09:00,27.5,16.9,30.12,NNW,346,7.0,12.0,64,0.00,,---,0.00,VWS V14.01,2013-03-02 17:09:00,
2013-03-02 12:14:00,27.5,17.3,30.12,NNW,330,8.0,12.0,65,0.00,,---,0.00,VWS V14.01,2013-03-02 17:14:00,
2013-03-02 12:19:00,27.6,17.0,30.11,NW,319,7.0,12.0,64,0.00,,---,0.00,VWS V14.01,2013-03-02 17:19:00,
2013-03-02 12:24:00,27.5,16.9,30.11,NW,325,6.0,12.0,64,0.00,,---,0.00,VWS V14.01,2013-03-02 17:24:00,
2013-03-02 12:29:00,27.6,17.0,30.12,North,5,3.0,12.0,64,0.00,,---,0.00,VWS V14.01,2013-03-02 17:29:00,
2013-03-02 12:34:00,28.1,17.5,30.11,NNW,330,2.0,5.0,64,0.00,,---,0.00,VWS V14.01,2013-03-02 17:34:00,
2013-03-02 12:39:00,28.2,17.6,30.11,NW,320,0.0,6.0,64,0.00,,---,0.00,VWS V14.01,2013-03-02 17:39:00,
2013-03-02 12:44:00,28.2,17.6,30.11,NNW,329,3.0,6.0,64,0.00,,---,0.00,VWS V14.01,2013-03-02 17:44:00,
2013-03-02 12:49:00,28.2,17.2,30.11,NNW,344,4.0,9.0,63,0.00,,---,0.00,VWS V14.01,2013-03-02 17:49:00,
2013-03-02 12:54:00,28.2,17.2,30.11,NW,312,7.0,10.0,63,0.00,,---,0.00,VWS V14.01,2013-03-02 17:54:00,
2013-03-02 12:59:00,27.9,16.2,30.10,NW,315,6.0,12.0,61,0.00,,---,0.00,VWS V14.01,2013-03-02 17:59:00,
2013-03-02 13:04:00,27.9,16.6,30.10,NNW,331,4.0,11.0,62,0.00,,---,0.00,VWS V14.01,2013-03-02 18:04:00,
2013-03-02 13:09:00,27.9,16.6,30.10,NW,318,3.0,11.0,62,0.00,,---,0.00,VWS V14.01,2013-03-02 18:09:00,
2013-03-02 13:14:00,28.1,17.1,30.10,NNW,338,5.0,11.0,63,0.00,,---,0.00,VWS V14.01,2013-03-02 18:14:00,
2013-03-02 13:19:00,28.1,16.8,30.10,NNW,341,3.0,11.0,62,0.00,,---,0.00,VWS V14.01,2013-03-02 18:19:00,
2013-03-02 13:24:00,28.4,17.1,30.10,NW,321,5.0,11.0,62,0.00,,---,0.00,VWS V14.01,2013-03-02 18:24:00,
2013-03-02 13:29:00,28.4,16.3,30.10,NNW,335,5.0,11.0,60,0.00,,---,0.00,VWS V14.01,2013-03-02 18:29:00,
2013-03-02 13:34:00,28.4,16.3,30.10,NNW,327,3.0,10.0,60,0.00,,---,0.00,VWS V14.01,2013-03-02 18:34:00,
2013-03-02 13:39:00,28.5,16.8,30.10,NW,321,4.0,10.0,61,0.00,,---,0.00,VWS V14.01,2013-03-02 18:39:00,
2013-03-02 13:44:00,28.5,16.0,30.09,North,349,7.0,11.0,59,0.00,,---,0.00,VWS V14.01,2013-03-02 18:44:00,
2013-03-02 13:49:00,28.5,16.0,30.09,North,360,7.0,11.0,59,0.00,,---,0.00,VWS V14.01,2013-03-02 18:49:00,
2013-03-02 13:54:00,28.5,14.8,30.09,NW,326,7.0,14.0,56,0.00,,---,0.00,VWS V14.01,2013-03-02 18:54:00,
2013-03-02 13:59:00,28.5,14.8,30.09,NNW,339,3.0,14.0,56,0.00,,---,0.00,VWS V14.01,2013-03-02 18:59:00,
2013-03-02 14:04:00,28.8,15.1,30.09,North,10,8.0,12.0,56,0.00,,---,0.00,VWS V14.01,2013-03-02 19:04:00,
2013-03-02 14:09:00,28.8,15.1,30.09,NNW,347,7.0,12.0,56,0.00,,---,0.00,VWS V14.01,2013-03-02 19:09:00,
2013-03-02 14:14:00,28.8,14.7,30.09,NNW,336,8.0,12.0,55,0.00,,---,0.00,VWS V14.01,2013-03-02 19:14:00,
2013-03-02 14:19:00,28.7,14.6,30.09,NNW,338,7.0,12.0,55,0.00,,---,0.00,VWS V14.01,2013-03-02 19:19:00,
2013-03-02 14:24:00,28.8,15.1,30.09,NNW,346,10.0,12.0,56,0.00,,---,0.00,VWS V14.01,2013-03-02 19:24:00,
2013-03-02 14:29:00,29.0,15.3,30.09,North,5,4.0,12.0,56,0.00,,---,0.00,VWS V14.01,2013-03-02 19:29:00,
2013-03-02 14:34:00,29.0,15.3,30.09,NNW,344,3.0,11.0,56,0.00,,---,0.00,VWS V14.01,2013-03-02 19:34:00,
2013-03-02 14:39:00,29.0,15.3,30.09,NNW,329,3.0,11.0,56,0.00,,---,0.00,VWS V14.01,2013-03-02 19:39:00,
2013-03-02 14:44:00,29.1,15.4,30.09,North,360,7.0,11.0,56,0.00,,---,0.00,VWS V14.01,2013-03-02 19:44:00,
2013-03-02 14:49:00,29.1,15.0,30.09,North,355,9.0,11.0,55,0.00,,---,0.00,VWS V14.01,2013-03-02 19:49:00,
2013-03-02 14:54:00,29.0,15.3,30.09,NNE,19,9.0,11.0,56,0.00,,---,0.00,VWS V14.01,2013-03-02 19:54:00,
2013-03-02 14:59:00,29.1,15.4,30.09,NNW,340,8.0,11.0,56,0.00,,---,0.00,VWS V14.01,2013-03-02 19:59:00,
2013-03-02 15:04:00,29.3,15.6,30.09,North,9,4.0,8.0,56,0.00,,---,0.00,VWS V14.01,2013-03-02 20:04:00,
2013-03-02 15:09:00,29.3,15.6,30.09,North,351,6.0,9.0,56,0.00,,---,0.00,VWS V14.01,2013-03-02 20:09:00,
2013-03-02 15:14:00,29.1,15.4,30.09,North,5,6.0,9.0,56,0.00,,---,0.00,VWS V14.01,2013-03-02 20:14:00,
2013-03-02 15:19:00,29.1,15.4,30.09,NNW,343,3.0,11.0,56,0.00,,---,0.00,VWS V14.01,2013-03-02 20:19:00,
2013-03-02 15:24:00,29.1,15.4,30.09,NNE,12,6.0,11.0,56,0.00,,---,0.00,VWS V14.01,2013-03-02 20:24:00,
2013-03-02 15:29:00,29.1,15.4,30.09,NNW,336,3.0,11.0,56,0.00,,---,0.00,VWS V14.01,2013-03-02 20:29:00,
2013-03-02 15:34:00,29.3,16.0,30.09,NNW,327,2.0,6.0,57,0.00,,---,0.00,VWS V14.01,2013-03-02 20:34:00,
2013-03-02 15:39:00,29.4,16.1,30.09,NNW,333,6.0,8.0,57,0.00,,---,0.00,VWS V14.01,2013-03-02 20:39:00,
2013-03-02 15:44:00,29.4,15.7,30.09,NNW,344,5.0,11.0,56,0.00,,---,0.00,VWS V14.01,2013-03-02 20:44:00,
2013-03-02 15:49:00,29.1,15.4,30.09,NNW,327,10.0,11.0,56,0.00,,---,0.00,VWS V14.01,2013-03-02 20:49:00,
2013-03-02 15:54:00,29.0,15.7,30.09,NNW,333,1.0,11.0,57,0.00,,---,0.00,VWS V14.01,2013-03-02 20:54:00,
2013-03-02 15:59:00,29.3,16.0,30.09,North,355,7.0,11.0,57,0.00,,---,0.00,VWS V14.01,2013-03-02 20:59:00,
2013-03-02 16:04:00,29.4,15.7,30.09,North,360,6.0,9.0,56,0.00,,---,0.00,VWS V14.01,2013-03-02 21:04:00,
2013-03-02 16:08:00,29.5,16.2,30.09,NNW,340,7.0,12.0,57,0.00,,---,0.00,VWS V14.01,2013-03-02 21:08:00,
2013-03-02 16:13:00,29.7,15.9,30.09,NW,306,10.0,12.0,56,0.00,,---,0.00,VWS V14.01,2013-03-02 21:13:00,
2013-03-02 16:18:00,29.8,15.6,30.09,NNW,348,2.0,12.0,55,0.00,,---,0.00,VWS V14.01,2013-03-02 21:18:00,
2013-03-02 16:23:00,30.0,15.8,30.09,North,355,7.0,12.0,55,0.00,,---,0.00,VWS V14.01,2013-03-02 21:23:00,
2013-03-02 16:28:00,29.8,15.2,30.09,WNW,295,7.0,12.0,54,0.00,,---,0.00,VWS V14.01,2013-03-02 21:28:00,
2013-03-02 16:33:00,29.7,15.5,30.09,NNW,335,9.0,10.0,55,0.00,,---,0.00,VWS V14.01,2013-03-02 21:33:00,
2013-03-02 16:38:00,29.5,16.2,30.09,NW,310,7.0,10.0,57,0.00,,---,0.00,VWS V14.01,2013-03-02 21:38:00,
2013-03-02 16:43:00,29.4,16.1,30.09,NW,323,9.0,12.0,57,0.00,,---,0.00,VWS V14.01,2013-03-02 21:43:00,
2013-03-02 16:48:00,29.3,16.8,30.09,WNW,302,4.0,12.0,59,0.00,,---,0.00,VWS V14.01,2013-03-02 21:48:00,
2013-03-02 16:53:00,29.4,17.2,30.09,NW,308,9.0,12.0,60,0.00,,---,0.00,VWS V14.01,2013-03-02 21:53:00,
2013-03-02 16:58:00,29.3,17.5,30.09,NW,321,8.0,12.0,61,0.00,,---,0.00,VWS V14.01,2013-03-02 21:58:00,
2013-03-02 17:03:00,29.3,19.0,30.09,WNW,286,6.0,8.0,65,0.00,,---,0.00,VWS V14.01,2013-03-02 22:03:00,
2013-03-02 17:08:00,29.1,19.5,30.09,WNW,300,8.0,11.0,67,0.00,,---,0.00,VWS V14.01,2013-03-02 22:08:00,
2013-03-02 17:13:00,29.0,19.8,30.10,WNW,289,6.0,11.0,68,0.00,,---,0.00,VWS V14.01,2013-03-02 22:13:00,
2013-03-02 17:18:00,28.8,19.9,30.10,WNW,302,9.0,12.0,69,0.00,,---,0.00,VWS V14.01,2013-03-02 22:18:00,
2013-03-02 17:23:00,28.5,20.3,30.10,WNW,302,7.0,12.0,71,0.00,,---,0.00,VWS V14.01,2013-03-02 22:23:00,
2013-03-02 17:28:00,28.2,20.0,30.10,NNW,327,6.0,13.0,71,0.00,,---,0.00,VWS V14.01,2013-03-02 22:28:00,
2013-03-02 17:33:00,28.2,20.0,30.10,NW,308,6.0,10.0,71,0.00,,---,0.00,VWS V14.01,2013-03-02 22:33:00,
2013-03-02 17:38:00,28.2,20.0,30.10,NW,315,8.0,11.0,71,0.00,,---,0.00,VWS V14.01,2013-03-02 22:38:00,
2013-03-02 17:43:00,28.2,20.0,30.10,NNW,329,6.0,11.0,71,0.00,,---,0.00,VWS V14.01,2013-03-02 22:43:00,
2013-03-02 17:48:00,28.4,20.2,30.10,NW,312,6.0,11.0,71,0.00,,---,0.00,VWS V14.01,2013-03-02 22:48:00,
2013-03-02 17:54:00,28.4,20.2,30.10,NNW,339,7.0,11.0,71,0.00,,---,0.00,VWS V14.01,2013-03-02 22:54:00,
2013-03-02 17:59:00,28.4,19.5,30.10,NNW,335,5.0,11.0,69,0.00,,---,0.00,VWS V14.01,2013-03-02 22:59:00,
2013-03-02 18:04:00,28.4,19.2,30.10,NW,304,4.0,7.0,68,0.00,,---,0.00,VWS V14.01,2013-03-02 23:04:00,
2013-03-02 18:09:00,28.5,19.0,30.10,WNW,299,9.0,9.0,67,0.00,,---,0.00,VWS V14.01,2013-03-02 23:09:00,
2013-03-02 18:14:00,28.7,18.1,30.11,NW,310,4.0,9.0,64,0.00,,---,0.00,VWS V14.01,2013-03-02 23:14:00,
2013-03-02 18:19:00,28.8,17.4,30.11,NW,323,6.0,12.0,62,0.00,,---,0.00,VWS V14.01,2013-03-02 23:19:00,
2013-03-02 18:24:00,28.8,16.7,30.11,WNW,299,7.0,12.0,60,0.00,,---,0.00,VWS V14.01,2013-03-02 23:24:00,
2013-03-02 18:29:00,28.8,16.3,30.11,NNW,331,9.0,13.0,59,0.00,,---,0.00,VWS V14.01,2013-03-02 23:29:00,
2013-03-02 18:34:00,28.7,16.6,30.11,NW,324,8.0,10.0,60,0.00,,---,0.00,VWS V14.01,2013-03-02 23:34:00,
2013-03-02 18:39:00,28.7,16.6,30.11,NW,306,4.0,10.0,60,0.00,,---,0.00,VWS V14.01,2013-03-02 23:39:00,
2013-03-02 18:44:00,28.7,16.6,30.11,NW,313,3.0,10.0,60,0.00,,---,0.00,VWS V14.01,2013-03-02 23:44:00,
2013-03-02 18:49:00,28.5,16.4,30.11,NW,313,2.0,10.0,60,0.00,,---,0.00,VWS V14.01,2013-03-02 23:49:00,
2013-03-02 18:54:00,28.7,16.6,30.11,NW,323,3.0,10.0,60,0.00,,---,0.00,VWS V14.01,2013-03-02 23:54:00,
2013-03-02 18:59:00,28.7,16.2,30.11,NW,324,3.0,10.0,59,0.00,,---,0.00,VWS V14.01,2013-03-02 23:59:00,
2013-03-02 19:04:00,28.8,15.9,30.11,WNW,297,5.0,8.0,58,0.00,,---,0.00,VWS V14.01,2013-03-03 00:04:00,
2013-03-02 19:09:00,29.0,15.7,30.11,NNW,338,4.0,8.0,57,0.00,,---,0.00,VWS V14.01,2013-03-03 00:09:00,
2013-03-02 19:14:00,29.0,15.7,30.11,NW,321,6.0,9.0,57,0.00,,---,0.00,VWS V14.01,2013-03-03 00:14:00,
2013-03-02 19:19:00,29.0,15.7,30.11,NNW,332,4.0,9.0,57,0.00,,---,0.00,VWS V14.01,2013-03-03 00:19:00,
2013-03-02 19:24:00,29.0,15.7,30.11,NW,319,1.0,9.0,57,0.00,,---,0.00,VWS V14.01,2013-03-03 00:24:00,
2013-03-02 19:29:00,29.0,16.1,30.11,NNW,327,5.0,9.0,58,0.00,,---,0.00,VWS V14.01,2013-03-03 00:29:00,
2013-03-02 19:34:00,29.0,15.7,30.11,NW,308,4.0,6.0,57,0.00,,---,0.00,VWS V14.01,2013-03-03 00:34:00,
2013-03-02 19:39:00,29.0,15.7,30.11,NW,325,4.0,6.0,57,0.00,,---,0.00,VWS V14.01,2013-03-03 00:39:00,
2013-03-02 19:44:00,29.1,16.2,30.11,NW,306,2.0,8.0,58,0.00,,---,0.00,VWS V14.01,2013-03-03 00:44:00,
2013-03-02 19:49:00,29.1,16.2,30.11,NW,308,4.0,8.0,58,0.00,,---,0.00,VWS V14.01,2013-03-03 00:49:00,
2013-03-02 19:54:00,29.1,16.2,30.11,WNW,303,3.0,8.0,58,0.00,,---,0.00,VWS V14.01,2013-03-03 00:54:00,
2013-03-02 19:59:00,29.1,16.2,30.11,WNW,298,2.0,8.0,58,0.00,,---,0.00,VWS V14.01,2013-03-03 00:59:00,
2013-03-02 20:04:00,29.1,16.6,30.11,NW,311,3.0,5.0,59,0.00,,---,0.00,VWS V14.01,2013-03-03 01:04:00,
2013-03-02 20:09:00,29.1,16.6,30.11,NW,309,3.0,5.0,59,0.00,,---,0.00,VWS V14.01,2013-03-03 01:09:00,
2013-03-02 20:14:00,29.1,16.6,30.11,WNW,294,2.0,6.0,59,0.00,,---,0.00,VWS V14.01,2013-03-03 01:14:00,
2013-03-02 20:19:00,29.1,16.6,30.11,WNW,288,6.0,8.0,59,0.00,,---,0.00,VWS V14.01,2013-03-03 01:19:00,
2013-03-02 20:24:00,29.1,16.6,30.11,WNW,290,3.0,8.0,59,0.00,,---,0.00,VWS V14.01,2013-03-03 01:24:00,
2013-03-02 20:29:00,29.1,17.0,30.11,NW,305,5.0,9.0,60,0.00,,---,0.00,VWS V14.01,2013-03-03 01:29:00,
2013-03-02 20:34:00,29.1,18.1,30.11,WNW,298,11.0,11.0,63,0.00,,---,0.00,VWS V14.01,2013-03-03 01:34:00,
2013-03-02 20:39:00,29.1,19.2,30.11,NW,309,8.0,11.0,66,0.00,,---,0.00,VWS V14.01,2013-03-03 01:39:00,
2013-03-02 20:43:00,29.0,19.4,30.11,WNW,303,6.0,11.0,67,0.00,,---,0.00,VWS V14.01,2013-03-03 01:43:00,
2013-03-02 20:48:00,29.0,20.1,30.11,NW,305,6.0,14.0,69,0.00,,---,0.00,VWS V14.01,2013-03-03 01:48:00,
2013-03-02 20:54:00,28.8,20.3,30.11,WNW,299,7.0,14.0,70,0.00,,---,0.00,VWS V14.01,2013-03-03 01:54:00,
2013-03-02 20:59:00,28.7,20.2,30.11,WNW,302,6.0,14.0,70,0.00,,---,0.00,VWS V14.01,2013-03-03 01:59:00,
2013-03-02 21:04:00,28.7,20.5,30.11,WNW,286,7.0,12.0,71,0.00,,---,0.00,VWS V14.01,2013-03-03 02:04:00,
2013-03-02 21:08:00,28.5,20.3,30.11,NW,306,6.0,12.0,71,0.00,,---,0.00,VWS V14.01,2013-03-03 02:08:00,
2013-03-02 21:13:00,28.5,20.3,30.11,NW,311,8.0,12.0,71,0.00,,---,0.00,VWS V14.01,2013-03-03 02:13:00,
2013-03-02 21:18:00,28.5,20.3,30.11,WNW,291,9.0,12.0,71,0.00,,---,0.00,VWS V14.01,2013-03-03 02:18:00,
2013-03-02 21:23:00,28.5,20.3,30.11,NW,323,4.0,12.0,71,0.00,,---,0.00,VWS V14.01,2013-03-03 02:23:00,
2013-03-02 21:28:00,28.5,20.3,30.11,WNW,301,8.0,15.0,71,0.00,,---,0.00,VWS V14.01,2013-03-03 02:28:00,
2013-03-02 21:33:00,28.5,20.6,30.12,NW,304,11.0,11.0,72,0.00,,---,0.00,VWS V14.01,2013-03-03 02:33:00,
2013-03-02 21:38:00,28.5,20.6,30.12,NW,311,8.0,13.0,72,0.00,,---,0.00,VWS V14.01,2013-03-03 02:38:00,
2013-03-02 21:43:00,28.5,20.6,30.12,NNW,338,10.0,13.0,72,0.00,,---,0.00,VWS V14.01,2013-03-03 02:43:00,
2013-03-02 21:48:00,28.4,20.9,30.12,NW,313,7.0,14.0,73,0.00,,---,0.00,VWS V14.01,2013-03-03 02:48:00,
2013-03-02 21:53:00,28.4,20.9,30.12,WNW,299,5.0,14.0,73,0.00,,---,0.00,VWS V14.01,2013-03-03 02:53:00,
2013-03-02 21:58:00,28.4,20.9,30.12,WNW,290,7.0,14.0,73,0.00,,---,0.00,VWS V14.01,2013-03-03 02:58:00,
2013-03-02 22:03:00,28.4,20.9,30.12,NW,312,6.0,9.0,73,0.00,,---,0.00,VWS V14.01,2013-03-03 03:03:00,
2013-03-02 22:09:00,28.4,20.9,30.12,NW,304,6.0,12.0,73,0.00,,---,0.00,VWS V14.01,2013-03-03 03:09:00,
2013-03-02 22:14:00,28.4,20.9,30.11,NW,307,11.0,12.0,73,0.00,,---,0.00,VWS V14.01,2013-03-03 03:14:00,
2013-03-02 22:19:00,28.4,20.9,30.11,NW,307,7.0,13.0,73,0.00,,---,0.00,VWS V14.01,2013-03-03 03:19:00,
2013-03-02 22:24:00,28.2,20.7,30.12,WNW,302,6.0,14.0,73,0.00,,---,0.00,VWS V14.01,2013-03-03 03:24:00,
2013-03-02 22:29:00,28.2,20.7,30.11,NNW,329,9.0,14.0,73,0.00,,---,0.00,VWS V14.01,2013-03-03 03:29:00,
2013-03-02 22:33:00,28.2,20.4,30.11,NW,309,7.0,10.0,72,0.00,,---,0.00,VWS V14.01,2013-03-03 03:33:00,
2013-03-02 22:38:00,28.2,20.4,30.11,NW,304,6.0,12.0,72,0.00,,---,0.00,VWS V14.01,2013-03-03 03:38:00,
2013-03-02 22:43:00,28.2,20.4,30.11,WNW,302,8.0,12.0,72,0.00,,---,0.00,VWS V14.01,2013-03-03 03:43:00,
2013-03-02 22:48:00,28.2,20.4,30.11,NNW,342,9.0,12.0,72,0.00,,---,0.00,VWS V14.01,2013-03-03 03:48:00,
2013-03-02 22:53:00,28.2,20.4,30.11,NW,306,11.0,12.0,72,0.00,,---,0.00,VWS V14.01,2013-03-03 03:53:00,
2013-03-02 22:58:00,28.1,20.2,30.11,NW,313,5.0,13.0,72,0.00,,---,0.00,VWS V14.01,2013-03-03 03:58:00,
2013-03-02 23:03:00,28.1,20.6,30.11,NW,311,7.0,14.0,73,0.00,,---,0.00,VWS V14.01,2013-03-03 04:03:00,
2013-03-02 23:08:00,27.9,20.4,30.11,NW,309,6.0,14.0,73,0.00,,---,0.00,VWS V14.01,2013-03-03 04:08:00,
2013-03-02 23:13:00,27.9,20.4,30.11,NW,321,8.0,14.0,73,0.00,,---,0.00,VWS V14.01,2013-03-03 04:13:00,
2013-03-02 23:18:00,27.9,20.4,30.11,NW,323,4.0,14.0,73,0.00,,---,0.00,VWS V14.01,2013-03-03 04:18:00,
2013-03-02 23:23:00,27.9,20.4,30.11,NW,312,7.0,14.0,73,0.00,,---,0.00,VWS V14.01,2013-03-03 04:23:00,
2013-03-02 23:28:00,27.9,20.1,30.11,NW,320,3.0,14.0,72,0.00,,---,0.00,VWS V14.01,2013-03-03 04:28:00,
2013-03-02 23:33:00,27.9,20.1,30.11,NW,308,9.0,9.0,72,0.00,,---,0.00,VWS V14.01,2013-03-03 04:33:00,
2013-03-02 23:38:00,28.1,20.2,30.11,NW,306,8.0,10.0,72,0.00,,---,0.00,VWS V14.01,2013-03-03 04:38:00,
2013-03-02 23:43:00,28.1,19.9,30.11,WNW,303,9.0,13.0,71,0.00,,---,0.00,VWS V14.01,2013-03-03 04:43:00,
2013-03-02 23:48:00,27.9,19.7,30.11,WNW,285,7.0,13.0,71,0.00,,---,0.00,VWS V14.01,2013-03-03 04:48:00,
2013-03-02 23:53:00,28.1,19.6,30.11,NW,310,9.0,13.0,70,0.00,,---,0.00,VWS V14.01,2013-03-03 04:53:00,
2013-03-02 23:58:00,28.1,19.9,30.11,NNW,331,6.0,14.0,71,0.00,,---,0.00,VWS V14.01,2013-03-03 04:58:00,